Regional Weather Roundup
Issued by NWS

Home | Current Version | Previous Version | Graphics & Text | Print | Product List | Glossary On
Versions: 1 2 3 4 5 6 7 8 9 10 11 12 13 14 15 16 17 18 19 20 21 22 23 24 25 26 27 28 29 30 31 32 33 34 35 36 37 38 39 40 41 42 43 44 45 46 47 48 49 50
000
ASUS43 KIND 280309
RWRIN

WEATHER ROUNDUP FOR INDIANA
NATIONAL WEATHER SERVICE INDIANAPOLIS IN
1100 PM EDT MON APR 27 2015

NOTE: "FAIR" INDICATES FEW OR NO CLOUDS BELOW 12,000 FEET WITH NO
SIGNIFICANT WEATHER AND/OR OBSTRUCTIONS TO VISIBILITY.

* - STATION DOES NOT REPORT WEATHER SUCH AS PRECIPITATION OR FOG.

+ - STATION NOT QUALITY CONTROLLED BY THE NATIONAL WEATHER SERVICE.
    USE DATA WITH CAUTION...ESPECIALLY DEWPOINT AND RELATIVE
    HUMIDITY OBSERVATIONS.

INZ001>003-010>013-019-020-280400-
NORTHWEST INDIANA

CITY           SKY/WX    TMP DP  RH WIND       PRES   REMARKS
GARY /AIRPORT/ CLEAR     41  32  70 N6        30.13R
KNOX *+        CLEAR     37  27  65 N6        30.10S
LA PORTE +     CLEAR     39  35  83 CALM      30.12S
MICHIGAN CITY+ CLEAR     37  32  81 CALM      30.12S
MONTICELLO +   CLEAR     44  35  71 N7        30.10R
VALPARAISO     CLEAR     39  33  79 CALM      30.12R

$$

LMZ046-743>745-280400-
SOUTHERN LAKE MICHIGAN

STATION/POSITION TIME  TEMP    WIND        PRES    WAVE
                       AIR SEA DIR/SP/G            HT
                 (UTC) (F)     (DEG/KT/KT) (MB)    (FT)
BURNS HARBOR     0300   42     320/  6/  9 1020.7S
MICHIGAN CITY    0300   44     210/  3/  4   N/A
5NW MICH CITY    0300   41 45  300/  8/ 10   N/A     3

$$

INZ004-005-014>016-021>024-280400-
NORTH CENTRAL INDIANA

CITY           SKY/WX    TMP DP  RH WIND       PRES   REMARKS
GOSHEN         CLEAR     42  34  73 N6        30.10R
LOGANSPORT +   CLEAR     41  34  75 N3        30.11R
PERU/GRISSOM   CLEAR     45  36  70 N6        30.09R
ROCHESTER +    CLEAR     43  37  81 NW5       30.11R
SOUTH BEND     CLEAR     42  33  70 CALM      30.12R
WARSAW +       CLEAR     43  36  75 CALM      30.10S

$$

INZ006>009-017-018-025>027-280400-
NORTHEAST INDIANA

CITY           SKY/WX    TMP DP  RH WIND       PRES   REMARKS
ANGOLA *+      CLEAR     37  36  93 CALM      30.10R
AUBURN +       CLEAR     39  32  75 CALM      30.10S
FORT WAYNE     CLEAR     40  34  79 CALM      30.10R
HUNTINGTON +   CLEAR     41  35  79 CALM      30.09S

$$

INZ028-029-035-036-043>045-051>053-280400-
WEST CENTRAL INDIANA

CITY           SKY/WX    TMP DP  RH WIND       PRES   REMARKS
CRAWFORDSVL +  CLEAR     42  29  58 N3        30.08S
GREENCASTLE +  CLEAR     45  32  61 N5        30.08S
LAFAYETTE      CLEAR     44  34  67 N12       30.09S
TERRE HAUTE    CLEAR     46  37  71 NW5       30.09R

$$

INZ030>032-037>040-046>048-054>057-064-065-280400-
CENTRAL INDIANA

CITY           SKY/WX    TMP DP  RH WIND       PRES   REMARKS
CP ATTERBURY + CLOUDY    50  37  62 N6        30.07S
FRANKFORT +    CLEAR     45  36  71 NW7       30.10S
GREENWOOD *+   PTCLDY    48  34  57 N6        30.07
INDIANAPOLIS   PTCLDY    47  36  65 N7        30.06R
-EAGLE CREEK   CLEAR     47  36  65 N5        30.07R
KOKOMO *+      CLEAR     43  34  70 NE6       30.09S
MARION +       CLOUDY    46  36  68 NE7       30.10R
MT COMFORT *+  PTCLDY    45  32  61 NE7       30.08R
SHELBYVILLE    MOCLDY    51  38  60 N6        30.06R
ZIONSVILLE +   CLEAR     45  35  69 NE3       30.09R

$$

INZ033-034-041-042-049-050-058-059-280400-
EAST CENTRAL INDIANA

CITY           SKY/WX    TMP DP  RH WIND       PRES   REMARKS
MUNCIE         CLOUDY    47  37  68 NE9       30.08S

$$

INZ060-061-067>069-081>083-085>088-280400-
SOUTHWEST INDIANA

CITY           SKY/WX    TMP DP  RH WIND       PRES   REMARKS
EVANSVILLE     CLEAR     54  38  54 N8        30.06R
HUNTINGBURG *+ CLEAR     50  36  57 NE9       30.06R
WASHINGTON +   CLEAR     49  36  61 N10       30.06S

$$

INZ062-063-066-070>080-084-089>092-280400-
SOUTH CENTRAL AND SOUTHEAST INDIANA

CITY           SKY/WX    TMP DP  RH WIND       PRES   REMARKS
BEDFORD +      CLEAR     48  36  61 CALM      30.06S
BLOOMINGTON    CLEAR     47  36  65 N5        30.07R
MADISON *+     CLEAR     48  36  61 N5        30.07R
NORTH VERNON + PTCLDY    48  37  66 NE7       30.07R
SEYMOUR +      CLEAR     50  39  66 N6        30.06R

$$



USA.gov is the U.S. government's official web portal to all federal, state and local government web resources and services.